WA4FG Weather Reports


Display with metric or nautical units.
time (UTC)temp
F
wind
direction
speed
MPH
gust
MPH
rain 1hr
in
rain 24hr
in
rain mn
in
humidity
%
barometer
mb
20260902200744 97 250 0.0 1.0 0.00 0.00 0.00 45 1015.9
20260902200243 97 251 0.0 1.0 0.00 0.00 0.00 45 1015.9
20260902195725 97 230 0.0 1.0 0.00 0.00 0.00 46 1016.1
20260902195145 97 134 0.0 0.0 0.00 0.00 0.00 48 1016.1
20260902194645 97 101 0.0 0.0 0.00 0.00 0.00 45 1016.3
20260902194120 97 101 0.0 0.0 0.00 0.00 0.00 45 1016.4
20260902193115 98 90 0.0 0.0 0.00 0.00 0.00 48 1016.6
20260902192615 98 90 0.0 0.0 0.00 0.00 0.00 45 1016.7
20260902192109 98 90 0.0 0.0 0.00 0.00 0.00 46 1016.7
20260902191606 98 207 0.0 2.0 0.00 0.00 0.00 45 1016.8
20260902190605 98 174 0.0 4.0 0.00 0.00 0.00 46 1016.9
20260902190108 98 174 0.0 4.0 0.00 0.00 0.00 45 1017.0
20260902185045 98 167 0.0 1.0 0.00 0.00 0.00 46 1017.2
20260902184545 98 167 0.0 1.0 0.00 0.00 0.00 46 1017.2
20260902184011 98 186 0.0 0.0 0.00 0.00 0.00 49 1017.3
20260902183450 98 187 0.0 0.0 0.00 0.00 0.00 46 1017.3
20260902182924 98 267 0.0 0.0 0.00 0.00 0.00 46 1017.4
20260902182356 97 267 0.0 1.0 0.00 0.00 0.00 47 1017.4
20260902181846 97 167 0.0 1.0 0.00 0.00 0.00 50 1017.6
20260902181342 96 169 0.0 4.0 0.00 0.00 0.00 51 1017.6
20260902180818 95 169 0.0 4.0 0.00 0.00 0.00 49 1017.7
20260902180255 95 313 0.0 0.0 0.00 0.00 0.00 57 1017.7
20260902175733 94 211 0.0 0.0 0.00 0.00 0.00 52 1017.8
20260902175209 94 211 0.0 0.0 0.00 0.00 0.00 56 1017.8
20260902174657 94 211 0.0 0.0 0.00 0.00 0.00 52 1017.9
20260902174149 95 211 0.0 0.0 0.00 0.00 0.00 52 1017.9
20260902173702 96 178 0.0 0.0 0.00 0.00 0.00 51 1017.9
20260902173118 97 179 0.0 0.0 0.00 0.00 0.00 50 1018.0
20260902172614 98 179 0.0 0.0 0.00 0.00 0.00 52 1018.0
20260902172114 97 181 0.0 0.0 0.00 0.00 0.00 50 1018.1
20260902171550 97 178 0.0 1.0 0.00 0.00 0.00 50 1018.2
20260902171025 97 177 0.0 1.0 0.00 0.00 0.00 50 1018.3
20260902170533 97 175 0.0 4.0 0.00 0.00 0.00 51 1018.4
20260902165955 96 203 0.0 4.0 0.00 0.00 0.00 50 1018.5
20260902165431 96 107 0.0 0.0 0.00 0.00 0.00 51 1018.6
20260902164933 96 170 0.0 0.0 0.00 0.00 0.00 51 1018.6
20260902163847 96 147 0.0 0.0 0.00 0.00 0.00 51 1018.8
20260902163332 95 144 0.0 0.0 0.00 0.00 0.00 50 1018.9
20260902162825 95 209 0.0 0.0 0.00 0.00 0.00 54 1018.9
20260902162324 95 219 0.0 0.0 0.00 0.00 0.00 52 1018.9
20260902161831 95 215 0.0 0.0 0.00 0.00 0.00 52 1019.0
20260902160800 94 219 0.0 0.0 0.00 0.00 0.00 54 1019.1
20260902160258 94 140 0.0 0.0 0.00 0.00 0.00 52 1019.1
20260902155238 93 132 0.0 0.0 0.00 0.00 0.00 52 1019.2
20260902154723 93 132 0.0 0.0 0.00 0.00 0.00 64 1019.2
20260902154229 93 164 0.0 0.0 0.00 0.00 0.00 57 1019.2
20260902153657 93 164 0.0 0.0 0.00 0.00 0.00 56 1019.2
20260902152625 92 164 0.0 0.0 0.00 0.00 0.00 56 1019.3
20260902151619 91 219 0.0 0.0 0.00 0.00 0.00 70 1019.2
20260902151110 91 219 0.0 0.0 0.00 0.00 0.00 68 1019.3
20260902150544 91 219 0.0 0.0 0.00 0.00 0.00 69 1019.3
20260902150019 90 219 0.0 0.0 0.00 0.00 0.00 66 1019.2
20260902145459 89 219 0.0 0.0 0.00 0.00 0.00 67 1019.2
20260902144926 89 219 0.0 0.0 0.00 0.00 0.00 72 1019.2
20260902144400 88 219 0.0 0.0 0.00 0.00 0.00 73 1019.2
20260902143835 87 220 0.0 0.0 0.00 0.00 0.00 75 1019.1
20260902143037 85 220 0.0 0.0 0.00 0.00 0.00 78 1019.1
20260902142536 84 220 0.0 0.0 0.00 0.00 0.00 80 1019.1
20260902142009 83 220 0.0 0.0 0.00 0.00 0.00 80 1019.2
20260902141441 82 220 0.0 0.0 0.00 0.00 0.00 85 1019.2
20260902140927 82 220 0.0 0.0 0.00 0.00 0.00 85 1019.2
20260902140419 81 220 0.0 0.0 0.00 0.00 0.00 85 1019.3
20260902135854 81 220 0.0 1.0 0.00 0.00 0.00 86 1019.3
20260902135409 80 220 0.0 1.0 0.00 0.00 0.00 83 1019.2
20260902134857 79 220 0.0 0.0 0.00 0.00 0.00 90 1019.3
20260902134324 78 220 0.0 0.0 0.00 0.00 0.00 93 1019.2
20260902133816 78 220 0.0 0.0 0.00 0.00 0.00 97 1019.3
20260902133249 77 220 0.0 0.0 0.00 0.00 0.00 97 1019.3
20260902132759 77 220 0.0 0.0 0.00 0.00 0.00 98 1019.3
20260902132219 76 220 0.0 0.0 0.00 0.00 0.00 99 1019.3
20260902131716 76 220 0.0 0.0 0.00 0.00 0.00 100 1019.2
20260902131157 76 220 0.0 0.0 0.00 0.00 0.00 100 1019.2
20260902130655 75 220 0.0 0.0 0.00 0.00 0.00 100 1019.2
20260902130152 75 220 0.0 0.0 0.00 0.00 0.00 100 1019.2
20260902125626 75 220 0.0 0.0 0.00 0.00 0.00 100 1019.1
20260902125059 75 220 0.0 0.0 0.00 0.00 0.00 100 1019.2
20260902124532 75 220 0.0 0.0 0.00 0.00 0.00 100 1019.1
20260902124026 74 220 0.0 0.0 0.00 0.00 0.00 100 1019.1
20260902123516 74 220 0.0 0.0 0.00 0.00 0.00 100 1019.2
20260902123014 74 220 0.0 0.0 0.00 0.00 0.00 100 1019.2
20260902122450 74 220 0.0 0.0 0.00 0.00 0.00 99 1019.1
20260902121922 74 220 0.0 0.0 0.00 0.00 0.00 99 1019.1
20260902120334 74 220 0.0 0.0 0.00 0.00 0.00 99 1019.1
20260902115830 74 220 0.0 0.0 0.00 0.00 0.00 99 1019.0
20260902115327 74 220 0.0 0.0 0.00 0.00 0.00 99 1019.0
20260902114827 74 220 0.0 0.0 0.00 0.00 0.00 99 1018.8
20260902114252 74 220 0.0 0.0 0.00 0.00 0.00 99 1018.8
20260902113751 74 220 0.0 0.0 0.00 0.00 0.00 99 1018.7
20260902113231 74 220 0.0 0.0 0.00 0.00 0.00 99 1018.7
20260902112729 74 220 0.0 0.0 0.00 0.00 0.00 99 1018.7
20260902112221 74 220 0.0 0.0 0.00 0.00 0.00 99 1018.6
20260902111153 74 220 0.0 0.0 0.00 0.00 0.00 99 1018.6
20260902110643 74 220 0.0 0.0 0.00 0.00 0.00 99 1018.5
20260902110108 74 220 0.0 0.0 0.00 0.00 0.00 98 1018.5
20260902105540 74 220 0.0 0.0 0.00 0.00 0.00 98 1018.4
20260902104504 74 220 0.0 0.0 0.00 0.00 0.00 98 1018.3
20260902104004 74 220 0.0 0.0 0.00 0.00 0.00 98 1018.3
20260902103444 74 220 0.0 0.0 0.00 0.00 0.00 98 1018.3
20260902102931 74 220 0.0 0.0 0.00 0.00 0.00 98 1018.3
20260902102415 74 220 0.0 0.0 0.00 0.00 0.00 98 1018.2
20260902101914 74 220 0.0 0.0 0.00 0.00 0.00 98 1018.2
20260902101411 74 220 0.0 0.0 0.00 0.00 0.00 98 1018.2
20260902100913 74 220 0.0 0.0 0.00 0.00 0.00 98 1018.2
20260902095814 74 220 0.0 0.0 0.00 0.00 0.00 98 1018.1
20260902095254 74 220 0.0 0.0 0.00 0.00 0.00 98 1018.1
20260902094740 74 220 0.0 0.0 0.00 0.00 0.00 98 1018.0
20260902093738 74 220 0.0 0.0 0.00 0.00 0.00 97 1017.9
20260902093223 75 220 0.0 0.0 0.00 0.00 0.00 97 1017.8
20260902092720 75 220 0.0 0.0 0.00 0.00 0.00 97 1017.8
20260902092220 75 220 0.0 0.0 0.00 0.00 0.00 97 1017.7
20260902091731 75 220 0.0 0.0 0.00 0.00 0.00 97 1017.7
20260902091210 75 220 0.0 0.0 0.00 0.00 0.00 97 1017.6
20260902090710 75 220 0.0 0.0 0.00 0.00 0.00 97 1017.6
20260902090207 75 220 0.0 0.0 0.00 0.00 0.00 97 1017.6
20260902085655 75 220 0.0 0.0 0.00 0.00 0.00 97 1017.5
20260902085152 75 220 0.0 0.0 0.00 0.00 0.00 97 1017.5
20260902084650 75 220 0.0 0.0 0.00 0.00 0.00 97 1017.4
20260902084124 75 220 0.0 0.0 0.00 0.00 0.00 97 1017.4
20260902083620 75 220 0.0 0.0 0.00 0.00 0.00 97 1017.4
20260902083054 75 220 0.0 0.0 0.00 0.00 0.00 97 1017.4
20260902082550 75 220 0.0 0.0 0.00 0.00 0.00 97 1017.3
20260902082041 75 220 0.0 0.0 0.00 0.00 0.00 96 1017.3
20260902081524 75 220 0.0 0.0 0.00 0.00 0.00 96 1017.2
20260902081011 75 220 0.0 0.0 0.00 0.00 0.00 96 1017.2
20260902080004 75 220 0.0 0.0 0.00 0.00 0.00 96 1017.2
20260902075507 75 220 0.0 0.0 0.00 0.00 0.00 96 1017.1
20260902075006 75 220 0.0 0.0 0.00 0.00 0.00 96 1017.2
20260902074439 75 220 0.0 0.0 0.00 0.00 0.00 96 1017.3
20260902073936 75 220 0.0 0.0 0.00 0.00 0.00 95 1017.2
20260902073433 75 220 0.0 0.0 0.00 0.00 0.00 95 1017.2
20260902072408 76 220 0.0 0.0 0.00 0.00 0.00 95 1017.2
20260902071843 76 220 0.0 0.0 0.00 0.00 0.00 95 1017.2
20260902071339 76 220 0.0 0.0 0.00 0.00 0.00 95 1017.2
20260902070820 76 220 0.0 0.0 0.00 0.00 0.00 94 1017.2
20260902070320 76 220 0.0 0.0 0.00 0.00 0.00 94 1017.2
20260902065818 76 220 0.0 0.0 0.00 0.00 0.00 94 1017.3
20260902064226 76 220 0.0 0.0 0.00 0.00 0.00 94 1017.3
20260902063723 76 220 0.0 0.0 0.00 0.00 0.00 94 1017.3
20260902063157 76 220 0.0 0.0 0.00 0.00 0.00 94 1017.3
20260902062634 76 220 0.0 0.0 0.00 0.00 0.00 94 1017.3
20260902062135 76 220 0.0 0.0 0.00 0.00 0.00 94 1017.2
20260902061107 76 220 0.0 0.0 0.00 0.00 0.00 94 1017.2
20260902060108 76 220 0.0 0.0 0.00 0.00 0.00 93 1017.3
20260902055543 76 220 0.0 0.0 0.00 0.00 0.00 93 1017.3
20260902055045 76 220 0.0 0.0 0.00 0.00 0.00 93 1017.3
20260902053447 77 220 0.0 0.0 0.00 0.00 0.00 93 1017.4
20260902052945 77 220 0.0 0.0 0.00 0.00 0.00 93 1017.5
20260902051428 77 220 0.0 0.0 0.00 0.00 0.00 91 1017.4
20260902050358 77 220 0.0 0.0 0.00 0.00 0.00 91 1017.4
20260902045855 77 220 0.0 0.0 0.00 0.00 0.00 91 1017.4
20260902045330 77 220 0.0 0.0 0.00 0.00 0.00 91 1017.4
20260902044820 77 220 0.0 0.0 0.00 0.00 0.00 90 1017.5
20260902043752 77 220 0.0 0.0 0.00 0.00 0.00 90 1017.5
20260902043223 77 220 0.0 0.0 0.00 0.00 0.00 89 1017.6
20260902042705 78 220 0.0 0.0 0.00 0.00 0.00 89 1017.6
20260902042204 78 220 0.0 0.0 0.00 0.00 0.00 89 1017.6
20260902041135 78 220 0.0 0.0 0.00 0.00 0.00 89 1017.6
20260902040631 78 220 0.0 0.0 0.00 0.00 0.00 88 1017.6
20260902035101 78 220 0.0 0.0 0.00 0.00 0.00 88 1017.7
20260902034559 78 220 0.0 0.0 0.00 0.00 0.00 87 1017.7
20260902034059 78 220 0.0 0.0 0.00 0.00 0.00 88 1017.7
20260902033557 78 220 0.0 0.0 0.00 0.00 0.00 87 1017.7
20260902033058 79 220 0.0 0.0 0.00 0.00 0.00 87 1017.7
20260902032556 79 220 0.0 0.0 0.00 0.00 0.00 87 1017.7
20260902032053 79 220 0.0 0.0 0.00 0.00 0.00 87 1017.7
20260902030952 79 220 0.0 0.0 0.00 0.00 0.00 86 1017.7
20260902030449 79 220 0.0 0.0 0.00 0.00 0.00 86 1017.7
20260902025947 79 220 0.0 0.0 0.00 0.00 0.00 86 1017.7
20260902025443 79 220 0.0 0.0 0.00 0.00 0.00 85 1017.7
20260902024941 79 220 0.0 0.0 0.00 0.00 0.00 85 1017.7
20260902024419 80 220 0.0 0.0 0.00 0.00 0.00 84 1017.6
20260902023912 80 220 0.0 0.0 0.00 0.00 0.00 83 1017.6
20260902023409 80 220 0.0 0.0 0.00 0.00 0.00 83 1017.6
20260902022905 80 220 0.0 0.0 0.00 0.00 0.00 82 1017.6
20260902022402 80 220 0.0 0.0 0.00 0.00 0.00 82 1017.6
20260902021836 80 220 0.0 0.0 0.00 0.00 0.00 82 1017.4
20260902021316 80 220 0.0 0.0 0.00 0.00 0.00 82 1017.4
20260902020758 80 220 0.0 0.0 0.00 0.00 0.00 82 1017.4
20260902020256 81 220 0.0 0.0 0.00 0.00 0.00 81 1017.2
20260902015204 81 220 0.0 0.0 0.00 0.00 0.00 79 1017.1
20260902014701 81 220 0.0 0.0 0.00 0.00 0.00 80 1017.0
20260902014144 81 220 0.0 0.0 0.00 0.00 0.00 80 1017.0
20260902013646 82 220 0.0 0.0 0.00 0.00 0.00 80 1017.0
20260902013118 82 220 0.0 0.0 0.00 0.00 0.00 78 1016.8
20260902012616 82 220 0.0 0.0 0.00 0.00 0.00 79 1016.8
20260902011538 83 220 0.0 0.0 0.00 0.00 0.00 76 1016.8
20260902011039 83 220 0.0 0.0 0.00 0.00 0.00 76 1016.7
20260902010528 83 220 0.0 0.0 0.00 0.00 0.00 76 1016.7
20260902010005 84 220 0.0 0.0 0.00 0.00 0.00 75 1016.6
20260902004946 84 220 0.0 0.0 0.00 0.00 0.00 76 1016.5
20260902004413 84 220 0.0 0.0 0.00 0.00 0.00 75 1016.5
20260902003858 85 220 0.0 0.0 0.00 0.00 0.00 73 1016.5
20260902003402 85 220 0.0 0.0 0.00 0.00 0.00 73 1016.4
20260902002836 85 220 0.0 0.0 0.00 0.00 0.00 72 1016.4
20260902001814 86 220 0.0 0.0 0.00 0.00 0.00 68 1016.5
20260902001249 87 220 0.0 0.0 0.00 0.00 0.00 67 1016.4
20260902000734 87 220 0.0 0.0 0.00 0.00 0.00 67 1016.5
20260902000207 87 220 0.0 0.0 0.00 0.00 0.00 67 1016.4
20260901235708 88 220 0.0 0.0 0.00 0.00 0.00 65 1016.5
20260901235148 88 220 0.0 0.0 0.00 0.00 0.00 63 1016.5
20260901234130 88 220 0.0 0.0 0.00 0.00 0.00 64 1016.5
20260901233630 89 220 0.0 0.0 0.00 0.00 0.00 63 1016.5
20260901233109 89 220 0.0 0.0 0.00 0.00 0.00 62 1016.6
20260901232553 89 220 0.0 0.0 0.00 0.00 0.00 61 1016.6
20260901232030 90 220 0.0 0.0 0.00 0.00 0.00 60 1016.7
20260901230457 91 220 0.0 0.0 0.00 0.00 0.00 56 1016.5
20260901225357 91 220 0.0 1.0 0.00 0.00 0.00 55 1016.6
20260901224855 92 220 0.0 1.0 0.00 0.00 0.00 57 1016.6
20260901224358 92 217 0.0 0.0 0.00 0.00 0.00 55 1016.5
20260901222258 92 288 0.0 0.0 0.00 0.00 0.00 52 1016.4
20260901221756 93 292 0.0 0.0 0.00 0.00 0.00 51 1016.4
20260901221238 93 284 0.0 0.0 0.00 0.00 0.00 54 1016.4
20260901220735 93 284 0.0 1.0 0.00 0.00 0.00 52 1016.4
20260901220245 93 176 0.0 1.0 0.00 0.00 0.00 51 1016.4
20260901215657 93 190 0.0 0.0 0.00 0.00 0.00 52 1016.4
20260901214650 94 190 0.0 1.0 0.00 0.00 0.00 52 1016.4
20260901214150 94 281 0.0 1.0 0.00 0.00 0.00 50 1016.4
20260901213640 94 202 0.0 0.0 0.00 0.00 0.00 50 1016.5
20260901212045 94 208 0.0 1.0 0.00 0.00 0.00 49 1016.5
20260901211027 94 81 0.0 4.0 0.00 0.00 0.00 47 1016.5
20260901210512 94 271 0.0 4.0 0.00 0.00 0.00 47 1016.6
20260901210000 94 26 0.0 1.0 0.00 0.00 0.00 46 1016.7
20260901205457 94 208 0.0 0.0 0.00 0.00 0.00 47 1016.7
20260901204955 94 207 0.0 0.0 0.00 0.00 0.00 48 1016.7
20260901203910 94 210 0.0 1.0 0.00 0.00 0.00 48 1016.9
20260901203408 94 210 0.0 1.0 0.00 0.00 0.00 49 1016.9
20260901202907 94 338 0.0 0.0 0.00 0.00 0.00 50 1016.9
20260901202406 94 338 0.0 0.0 0.00 0.00 0.00 51 1017.0
20260901201904 94 192 0.0 1.0 0.00 0.00 0.00 49 1017.1
20260901201339 94 181 0.0 0.0 0.00 0.00 0.00 51 1017.1